Regional Weather Roundup
Issued by NWS

Home | Current Version | Previous Version | Text Only | Print | Product List | Glossary On
Versions: 1 2 3 4 5 6 7 8 9 10 11 12 13 14 15 16 17 18 19 20 21 22 23 24 25 26 27 28 29 30 31 32 33 34 35 36 37 38 39 40 41 42 43 44 45 46 47 48 49 50
000
ASUS43 KMPX 192010
RWRMN
WEATHER ROUNDUP FOR MINNESOTA
NATIONAL WEATHER SERVICE TWIN CITIES/CHANHASSEN MN
300 PM CDT SUN APR 19 2015


NOTE: "FAIR" INDICATES FEW OR NO CLOUDS BELOW 12,000 FEET WITH NO
SIGNIFICANT WEATHER AND/OR OBSTRUCTIONS TO VISIBILITY. N/A MEANS
CURRENT SKY AND/OR WEATHER CONDITIONS ARE NOT AVAILABLE.

MNZ060>063-068>070-192100-
   Twin Cities Metro

CITY           SKY/WX    TMP DP  RH WIND       PRES   REMARKS
TWIN CITIES    CLOUDY    56  48  74 W12       29.61S
ST PAUL        CLOUDY    56  49  77 W15       29.61S
CRYSTAL        CLOUDY    60  46  59 W12G26    29.59F
BLAINE         CLOUDY    61  48  63 W14       29.60F
LAKEVILLE      CLOUDY    54  48  82 NW17      29.60F
EDEN PRAIRIE   CLOUDY    58  47  66 NW14      29.60F
SOUTH ST PAUL  CLOUDY    58  51  77 W15       29.60S
LAKE ELMO      CLOUDY    55  54  94 W12G17    29.60F
$$
MNZ001>005-007-008-013>017-022>024-027-028-192100-
   Northwest Minnesota

CITY           SKY/WX    TMP DP  RH WIND       PRES   REMARKS
BEMIDJI        CLOUDY    46  44  94 W14       29.61R
HALLOCK        LGT RAIN  39  37  93 NW25G33   29.70R
ROSEAU         LGT RAIN  43  37  81 NW18      29.61R
WARROAD        RAIN      41  37  87 N3        29.60F
THIEF RVR FALL CLOUDY    43  39  87 NW22G31   29.65S
CROOKSTON      DRIZZLE   39  39 100 N25G37    29.70R
FOSSTON        DRIZZLE   43  39  87 NW16G26   29.65S
DETROIT LAKES  PTSUNNY   43  41  93 NW18G26   29.69R
MOORHEAD       CLOUDY    46  39  76 NW18G24   29.72S
PARK RAPIDS    CLOUDY    49  42  77 NW20      29.63R
MAHNOMEN       CLOUDY    44  41  89 NW17G23   29.67R
$$
MNZ006-009>011-018-025>026-192100-
   North Central Minnesota

CITY           SKY/WX    TMP DP  RH WIND       PRES   REMARKS
BAUDETTE       CLOUDY    44  41  89 W7        29.58F
FLAG ISLAND    LGT RAIN  39  37  93 CALM      29.59F
INTL FALLS     CLOUDY    43  40  89 CALM      29.58F
WASKISH        CLOUDY    45  39  81 CALM      29.60S
BIG FORK       CLOUDY    45  41  87 CALM      29.60R
LONGVILLE      CLOUDY    48  45  87 W3        29.60F
GRAND RAPIDS   CLOUDY    45  41  87 W5        29.60S
ORR            CLOUDY    43  39  87 S3        29.56F
COOK           RAIN      43  43 100 S6        29.59F
WALKER         DRIZZLE   46  44  94 W14G20    29.61R
$$
MNZ012-019>021-037-192100-
   Northeast Minnesota

CITY           SKY/WX    TMP DP  RH WIND       PRES   REMARKS
DULUTH         DRZL/FOG  39  38  96 SE8       29.60F VSB 1/2
ELY            DRIZZLE   39  37  93 SE7       29.61F
HIBBING        CLOUDY    43  41  93 S5        29.59F FOG
EVELETH        CLOUDY    43  41  93 SE5       29.61F FOG
DULUTH HARBOR  DRIZZLE   37  36  93 NE17      29.63F
TWO HARBORS    CLOUDY    41  36  81 NE8       29.61F
SILVER BAY     LGT RAIN  37  36  93 NE7       29.62F
GRAND MARAIS     N/A     38  35  89 NE12G21   29.67F
G MARAIS ARPRT RAIN      36  34  93 E10       29.64F
$$
MNZ029>031-032-039>041-046>048-054>057-064-192100-
   West Central Minnesota

CITY           SKY/WX    TMP DP  RH WIND       PRES   REMARKS
FERGUS FALLS   CLOUDY    45  41  87 NW22G28   29.72S
WHEATON        PTSUNNY   50  37  62 NW16G23   29.75F
MORRIS         CLOUDY    48  39  71 NW22      29.71S
ALEXANDRIA     CLOUDY    46  40  79 NW22G31   29.69F
ELBOW LAKE     CLOUDY    46  40  79 NW22G31   29.71F
WADENA         CLOUDY    45  41  87 NW16G23   29.65S
GLENWOOD       CLOUDY    46  41  81 NW26G32   29.69S
APPLETON       CLOUDY    52  39  62 NW22G29   29.73S
BENSON         CLOUDY    48  39  71 N24       29.71F
ORTONVILLE     CLOUDY    54  37  54 N21       29.72F
MADISON        CLOUDY    52  37  58 NW20G29   29.73F
WILLMAR        FAIR      48  45  87 NW22G30   29.71S
$$
MNZ033>034-036-042>043-049>051-058-059-192100-
   Central Minnesota

CITY           SKY/WX    TMP DP  RH WIND       PRES   REMARKS
ST CLOUD       CLOUDY    53  45  74 W17G26    29.63S
SAUK CENTRE    CLOUDY    47  40  77 NW17G30   29.67S
PAYNESVILLE    CLOUDY    46  42  87 W20G29    29.68S
AITKIN         CLOUDY    48  43  81 W7        29.60R
PINE RIVER     CLOUDY    48  45  87 W8        29.65S
BRAINERD       CLOUDY    49  44  83 W3        29.62S
STAPLES        CLOUDY    45  43  93 NW12G23   29.64S
LONG PRAIRIE   CLOUDY    45  41  87 W14G23    29.67R
LITTLE FALLS   CLOUDY    48  43  81 W21G28    29.63S
LITCHFIELD     CLOUDY    52  46  82 NW16G29   29.67S
BUFFALO        CLOUDY    55  45  69 W13G20    29.63F
MAPLE LAKE     CLOUDY    54  48  78 W17G23    29.64S
$$
MNZ037-044-045-052-053-192100-
   East Central Minnesota

CITY           SKY/WX    TMP DP  RH WIND       PRES   REMARKS
PRINCETON      CLOUDY    55  46  71 W10G17    29.62S
MORA           CLOUDY    50  46  87 W15G22    29.62S
CAMBRIDGE      CLOUDY    55  45  67 W10G16    29.60S
RUSH CITY      CLOUDY    51  49  92 W8        29.60F
MOOSE LAKE     CLOUDY    48  46  93 CALM      29.57F FOG
HINCKLEY       DRIZZLE   52  52 100 CALM      29.59F
CLOQUET        FOG       39  39 100 E6        29.60F VSB 1/2
MCGREGOR       CLOUDY    46  46 100 CALM      29.60S
$$
MNZ071>073-080-081-089-090-097-098-192100-
   Southwest Minnesota

CITY           SKY/WX    TMP DP  RH WIND       PRES   REMARKS
MONTEVIDEO     CLOUDY    50  43  76 N20G26    29.73F
GRANITE FALLS  CLOUDY    50  42  73 NW22G29   29.74S
CANBY          CLOUDY    51  38  62 NW14G25   29.75F
MARSHALL       CLOUDY    52  37  58 NW24      29.72F
REDWOOD FALLS  CLOUDY    51  42  71 NW21G35   29.69F
OLIVIA         CLOUDY    48  41  76 NW24G38   29.69S
PIPESTONE      CLOUDY    50  37  62 N20G32    29.74F
WINDOM         CLOUDY    52  45  76 NW21G28   29.69F
WORTHINGTON    CLOUDY    52  39  62 NW22G32   29.71F
JACKSON        CLOUDY    50  43  76 NW25G32   29.67F
TRACY          CLOUDY    52  42  70 NW25G33   29.72F
SLAYTON        CLOUDY    49  40  70 NW25G35   29.73S
$$
MNZ065>067-074>077-082>085-091>093-192100-
   South Central Minnesota

CITY           SKY/WX    TMP DP  RH WIND       PRES   REMARKS
MANKATO        CLOUDY    52  45  76 NW21G26   29.64F
NEW ULM        CLOUDY    52  45  76 NW21G26   29.67R
ST JAMES       CLOUDY    52  46  82 NW24G32   29.67F
FAIRMONT       CLOUDY    52  39  62 NW21G31   29.64F
GLENCOE        CLOUDY    53  49  85 W21       29.64F
FARIBAULT      CLOUDY    54  50  87 NW16G22   29.62F
OWATONNA       DRIZZLE   54  50  87 NW15G21   29.62S
ALBERT LEA     RAIN      54  54 100 NW12G22   29.61S
$$
MNZ078>079-086>088-094>096-192100-
   Southeast Minnesota

CITY           SKY/WX    TMP DP  RH WIND       PRES   REMARKS
ROCHESTER      LGT RAIN  61  54  77 SE5       29.59F
RED WING       CLOUDY    64  52  63 CALM      29.57F
STANTON        CLOUDY    56  51  82 W16       29.59F
DODGE CENTER   RAIN      59  55  88 NW16      29.59F
WINONA         CLOUDY    59  45  58 E7        29.61F
AUSTIN         PTSUNNY   63  54  72 CALM      29.58F
PRESTON        CLOUDY    59  51  73 E5        29.60F
$$
ABBREVIATIONS USED IN REMARKS
   TC - TEMPERATURES IN CELSIUS
  WCI - WIND CHILL INDEX
   HX - HEAT INDEX
  VSB - VISIBILITY
$$



USA.gov is the U.S. government's official web portal to all federal, state and local government web resources and services.